When you browse on this site, cookies collect data to enhance your experience and personalize the content and advertising you see.
Visit our Privacy Policy to learn more. By continuing to use the site, you agree to this use of cookies and data.
  • In Czech Republic
  • List of Countries
  • For 7 days
  • Water Temperature
  • Satellite Maps
  • Weather Map
  • Weather Widgets
  • user-avatar
    Login

    Hourly Weather Corozal

    Today, 23 May, Thursday

    Time Temperature Precipitation Wind Pressure Humidity
    00:00 +28°C° 0 mm 3 mps 759 mmHg 83%
    01:00 +28°C° 0 mm 3 mps 758 mmHg 83%
    02:00 +28°C° 0 mm 2 mps 758 mmHg 83%
    03:00 +28°C° 0 mm 2 mps 758 mmHg 83%
    04:00 +28°C° 0.1 mm 2 mps 758 mmHg 84%
    05:00 +28°C° 0.1 mm 2 mps 758 mmHg 85%
    06:00 +28°C° 0.1 mm 2 mps 758 mmHg 87%
    07:00 +29°C° 0.2 mm 2 mps 758 mmHg 78%
    08:00 +31°C° 0.2 mm 3 mps 759 mmHg 69%
    09:00 +34°C° 0.2 mm 4 mps 759 mmHg 60%
    10:00 +35°C° 0.1 mm 4 mps 759 mmHg 56%
    11:00 +36°C° 0.1 mm 4 mps 759 mmHg 51%
    12:00 +37°C° 0.1 mm 5 mps 758 mmHg 47%
    13:00 +37°C° 0 mm 5 mps 758 mmHg 47%
    14:00 +36°C° 0 mm 5 mps 758 mmHg 48%
    15:00 +36°C° 0 mm 5 mps 757 mmHg 48%
    16:00 +35°C° 0 mm 4 mps 757 mmHg 53%
    17:00 +33°C° 0 mm 4 mps 757 mmHg 59%
    18:00 +31°C° 0 mm 3 mps 757 mmHg 64%
    19:00 +30°C° 0 mm 3 mps 758 mmHg 69%
    20:00 +29°C° 0 mm 3 mps 758 mmHg 74%
    21:00 +28°C° 0 mm 2 mps 759 mmHg 79%
    22:00 +28°C° 0.1 mm 2 mps 759 mmHg 82%
    23:00 +27°C° 0.1 mm 2 mps 759 mmHg 85%

    Tomorrow, 24 May, Friday

    Time Temperature Precipitation Wind Pressure Humidity
    00:00 +27°C° 0.1 mm 2 mps 759 mmHg 88%
    01:00 +27°C° 0 mm 2 mps 758 mmHg 89%
    02:00 +27°C° 0 mm 1 mps 758 mmHg 90%
    03:00 +26°C° 0 mm 1 mps 758 mmHg 91%
    04:00 +27°C° 0 mm 1 mps 758 mmHg 90%
    05:00 +27°C° 0 mm 1 mps 758 mmHg 90%
    06:00 +27°C° 0 mm 2 mps 758 mmHg 89%
    07:00 +29°C° 0.2 mm 2 mps 758 mmHg 79%
    08:00 +31°C° 0.2 mm 3 mps 759 mmHg 70%
    09:00 +33°C° 0.2 mm 3 mps 759 mmHg 60%
    10:00 +35°C° 0.1 mm 3 mps 759 mmHg 55%
    11:00 +36°C° 0.1 mm 4 mps 759 mmHg 50%
    12:00 +37°C° 0.1 mm 4 mps 758 mmHg 44%
    13:00 +37°C° 0 mm 4 mps 758 mmHg 45%
    14:00 +37°C° 0 mm 4 mps 757 mmHg 45%
    15:00 +37°C° 0 mm 4 mps 757 mmHg 45%
    16:00 +35°C° 0 mm 4 mps 757 mmHg 51%
    17:00 +34°C° 0 mm 3 mps 757 mmHg 57%
    18:00 +31°C° 0 mm 3 mps 757 mmHg 63%
    19:00 +30°C° 0 mm 3 mps 758 mmHg 69%
    20:00 +29°C° 0 mm 2 mps 758 mmHg 74%
    21:00 +28°C° 0 mm 2 mps 759 mmHg 80%
    22:00 +28°C° 0 mm 2 mps 759 mmHg 83%
    23:00 +27°C° 0 mm 2 mps 759 mmHg 85%

    Day after tomorrow, 25 May, Saturday

    Time Temperature Precipitation Wind Pressure Humidity
    00:00 +27°C° 0 mm 1 mps 759 mmHg 88%
    01:00 +27°C° 0 mm 1 mps 758 mmHg 89%
    02:00 +27°C° 0 mm 1 mps 758 mmHg 90%
    03:00 +26°C° 0 mm 1 mps 757 mmHg 91%
    04:00 +26°C° 0 mm 1 mps 758 mmHg 90%
    05:00 +27°C° 0 mm 1 mps 758 mmHg 89%
    06:00 +27°C° 0 mm 1 mps 758 mmHg 88%
    07:00 +29°C° 0 mm 2 mps 758 mmHg 78%
    08:00 +31°C° 0 mm 2 mps 759 mmHg 67%
    09:00 +34°C° 0 mm 3 mps 759 mmHg 56%
    10:00 +35°C° 0 mm 3 mps 759 mmHg 52%
    11:00 +36°C° 0 mm 3 mps 759 mmHg 47%
    12:00 +37°C° 0 mm 4 mps 758 mmHg 42%
    13:00 +37°C° 0 mm 4 mps 758 mmHg 42%
    14:00 +37°C° 0 mm 4 mps 757 mmHg 42%
    15:00 +37°C° 0 mm 4 mps 756 mmHg 42%
    16:00 +35°C° 0 mm 4 mps 757 mmHg 49%
    17:00 +34°C° 0 mm 3 mps 757 mmHg 55%
    18:00 +31°C° 0 mm 3 mps 757 mmHg 62%
    19:00 +30°C° 0 mm 3 mps 757 mmHg 68%
    20:00 +29°C° 0 mm 2 mps 758 mmHg 74%
    21:00 +28°C° 0 mm 2 mps 759 mmHg 80%
    22:00 +27°C° 0 mm 2 mps 759 mmHg 83%
    23:00 +27°C° 0 mm 1 mps 759 mmHg 85%

    26 May, Sunday

    Time Temperature Precipitation Wind Pressure Humidity
    00:00 +27°C° 0 mm 1 mps 759 mmHg 88%
    01:00 +26°C° 0 mm 1 mps 759 mmHg 89%
    02:00 +26°C° 0 mm 1 mps 758 mmHg 90%
    03:00 +26°C° 0 mm 1 mps 758 mmHg 92%
    04:00 +26°C° 0 mm 1 mps 758 mmHg 91%
    05:00 +26°C° 0 mm 1 mps 758 mmHg 90%
    06:00 +26°C° 0 mm 1 mps 758 mmHg 89%
    07:00 +29°C° 0 mm 1 mps 759 mmHg 78%
    08:00 +31°C° 0 mm 2 mps 759 mmHg 67%
    09:00 +34°C° 0 mm 2 mps 760 mmHg 55%
    10:00 +35°C° 0 mm 2 mps 759 mmHg 51%
    11:00 +36°C° 0 mm 3 mps 759 mmHg 47%
    12:00 +37°C° 0 mm 3 mps 759 mmHg 43%
    13:00 +37°C° 0 mm 3 mps 758 mmHg 43%
    14:00 +37°C° 0 mm 3 mps 757 mmHg 43%
    15:00 +37°C° 0 mm 3 mps 757 mmHg 43%
    16:00 +35°C° 0 mm 3 mps 757 mmHg 48%
    17:00 +34°C° 0 mm 3 mps 757 mmHg 54%
    18:00 +33°C° 0 mm 3 mps 758 mmHg 59%
    19:00 +31°C° 0 mm 2 mps 758 mmHg 67%
    20:00 +29°C° 0 mm 2 mps 758 mmHg 74%
    21:00 +28°C° 0 mm 2 mps 759 mmHg 81%
    22:00 +27°C° 0.3 mm 2 mps 759 mmHg 85%
    23:00 +27°C° 0.3 mm 1 mps 759 mmHg 89%

    27 May, Monday

    Time Temperature Precipitation Wind Pressure Humidity
    00:00 +26°C° 0.3 mm 1 mps 759 mmHg 93%
    01:00 +26°C° 0.3 mm 1 mps 758 mmHg 94%
    02:00 +26°C° 0.3 mm 1 mps 758 mmHg 95%
    03:00 +26°C° 0.3 mm 1 mps 757 mmHg 96%
    04:00 +26°C° 0 mm 1 mps 758 mmHg 95%
    05:00 +26°C° 0 mm 1 mps 758 mmHg 95%
    06:00 +26°C° 0 mm 1 mps 758 mmHg 95%
    07:00 +28°C° 0 mm 1 mps 758 mmHg 84%
    08:00 +30°C° 0 mm 2 mps 758 mmHg 73%
    09:00 +34°C° 0 mm 2 mps 759 mmHg 62%
    10:00 +35°C° 0 mm 3 mps 758 mmHg 56%
    11:00 +36°C° 0 mm 3 mps 758 mmHg 50%
    12:00 +37°C° 0 mm 4 mps 757 mmHg 45%
    13:00 +37°C° 0 mm 4 mps 757 mmHg 45%
    14:00 +37°C° 0 mm 4 mps 756 mmHg 46%
    15:00 +36°C° 0 mm 4 mps 756 mmHg 46%
    16:00 +35°C° 0 mm 3 mps 756 mmHg 52%
    17:00 +34°C° 0 mm 3 mps 756 mmHg 58%
    18:00 +31°C° 0 mm 3 mps 756 mmHg 64%
    19:00 +30°C° 0 mm 2 mps 757 mmHg 71%
    20:00 +29°C° 0 mm 2 mps 757 mmHg 77%
    21:00 +28°C° 0 mm 1 mps 757 mmHg 84%
    22:00 +27°C° 0.3 mm 1 mps 757 mmHg 86%
    23:00 +27°C° 0.3 mm 1 mps 757 mmHg 89%

    28 May, Tuesday

    Time Temperature Precipitation Wind Pressure Humidity
    00:00 +27°C° 0.3 mm 1 mps 757 mmHg 92%
    01:00 +26°C° 0 mm 1 mps 757 mmHg 93%
    02:00 +26°C° 0 mm 1 mps 756 mmHg 94%
    03:00 +26°C° 0 mm 1 mps 756 mmHg 95%
    04:00 +26°C° 0 mm 1 mps 756 mmHg 94%
    05:00 +26°C° 0 mm 1 mps 756 mmHg 94%
    06:00 +26°C° 0 mm 1 mps 756 mmHg 94%
    07:00 +28°C° 0 mm 1 mps 756 mmHg 84%
    08:00 +30°C° 0 mm 2 mps 757 mmHg 73%
    09:00 +32°C° 0 mm 2 mps 757 mmHg 63%
    10:00 +34°C° 0.4 mm 2 mps 756 mmHg 61%
    11:00 +35°C° 0.4 mm 3 mps 756 mmHg 58%
    12:00 +35°C° 0.4 mm 3 mps 755 mmHg 56%
    13:00 +35°C° 1.2 mm 3 mps 755 mmHg 60%
    14:00 +34°C° 1.2 mm 3 mps 754 mmHg 63%
    15:00 +33°C° 1.2 mm 3 mps 754 mmHg 67%
    16:00 +31°C° 0.7 mm 3 mps 754 mmHg 73%
    17:00 +30°C° 0.7 mm 3 mps 754 mmHg 80%
    18:00 +29°C° 0.7 mm 3 mps 754 mmHg 86%
    19:00 +28°C° 0.1 mm 3 mps 755 mmHg 88%
    20:00 +27°C° 0.1 mm 2 mps 755 mmHg 90%
    21:00 +27°C° 0.1 mm 2 mps 755 mmHg 93%
    22:00 +27°C° 2.9 mm 2 mps 755 mmHg 93%
    23:00 +27°C° 2.9 mm 2 mps 755 mmHg 94%
    Show more